N9GF Weather Reports


Display with metric or nautical units.
time (UTC)temp
F
wind
direction
speed
MPH
gust
MPH
rain 1hr
in
rain 24hr
in
rain mn
in
humidity
%
barometer
mb
20260505124534 47 349 0.0 0.0 0.00 0.00 0.04 4 1005.1
20260505123030 47 349 0.0 0.0 0.00 0.00 0.03 23 1005.1
20260505121526 48 349 0.0 0.0 0.00 0.00 0.02 37 1005.3
20260505120021 50 349 0.0 0.0 0.00 0.00 0.01 51 1005.7
20260505114518 50 344 0.0 0.0 0.00 0.00 0.01 52 1004.9
20260505113015 50 341 1.0 0.0 0.00 0.00 0.00 50 1004.6
20260505111513 51 348 1.0 0.0 0.00 0.00 0.00 48 1003.5
20260505101508 52 55 0.0 0.0 0.00 0.00 0.00 50 1002.2
20260505100005 53 327 0.0 0.0 0.00 0.00 0.00 49 1002.4
20260505094604 53 332 1.0 0.0 0.00 0.00 0.00 48 1002.7
20260505093102 54 61 0.0 0.0 0.00 0.00 0.00 45 1002.4
20260505091609 54 329 0.0 0.0 0.00 0.00 0.00 45 1002.4
20260505090053 55 67 1.0 0.0 0.00 0.00 0.00 44 1002.2
20260505084551 56 34 0.0 0.0 0.00 0.00 0.00 45 1001.5
20260505083046 56 35 1.0 0.0 0.00 0.00 0.00 45 1001.0
20260505081543 56 339 0.0 0.0 0.00 0.00 0.00 45 1000.2
20260505080040 56 360 1.0 0.0 0.00 0.00 0.00 45 1000.0
20260505074539 57 355 0.0 0.0 0.00 0.00 0.00 44 999.7
20260505073043 57 336 0.0 0.0 0.00 0.00 0.00 44 999.8
20260505071534 57 355 1.0 0.0 0.00 0.00 0.00 43 999.5
20260505070040 58 351 0.0 0.0 0.00 0.00 0.00 43 999.2
20260505064533 58 5 0.0 0.0 0.00 0.00 0.00 43 999.1
20260505063030 58 348 0.0 0.0 0.00 0.00 0.00 43 999.0
20260505061537 58 355 0.0 0.0 0.00 0.00 0.00 43 998.7
20260505060028 59 360 0.0 0.0 0.00 0.00 0.00 43 998.9
20260505054534 59 360 0.0 0.0 0.00 0.00 0.00 42 998.8
20260505053024 59 342 0.0 0.0 0.00 0.00 0.00 41 998.9
20260505051524 60 342 0.0 0.0 0.00 0.00 0.00 40 998.5
20260505041505 61 333 0.0 0.0 0.00 0.00 0.22 13 997.9
20260505040005 61 323 0.0 0.0 0.00 0.00 0.22 5 997.8
20260505034557 61 322 0.0 0.0 0.00 0.00 0.22 100 998.0
20260505033052 61 327 0.0 0.0 0.00 0.00 0.22 100 997.8
20260505031555 61 329 0.0 0.0 0.00 0.00 0.22 100 997.4
20260505030044 60 325 0.0 0.0 0.00 0.00 0.22 100 997.3
20260505024553 60 289 1.0 0.0 0.00 0.00 0.22 100 997.7
20260505023038 61 292 0.0 0.0 0.00 0.00 0.22 100 997.1
20260505021534 61 265 0.0 0.0 0.00 0.00 0.22 100 996.5
20260505020026 61 254 0.0 0.0 0.00 0.00 0.22 100 995.9
20260505014531 61 259 0.0 0.0 0.00 0.00 0.22 100 995.8
20260505013017 61 330 1.0 0.0 0.00 0.00 0.22 100 995.6
20260505011513 61 289 1.0 0.0 0.00 0.00 0.22 100 995.5
20260505010009 61 222 1.0 0.0 0.00 0.00 0.22 100 995.0
20260505004504 61 232 1.0 0.0 0.00 0.00 0.20 100 995.3
20260505003100 61 231 0.0 0.0 0.00 0.00 0.17 100 994.4
20260505001557 61 231 1.0 0.0 0.00 0.00 0.14 100 994.5
20260505000107 62 36 0.0 0.0 0.00 0.00 0.11 100 994.9
20260504234550 63 53 0.0 0.0 0.00 0.00 0.07 100 994.2
20260504233103 64 53 0.0 0.0 0.00 0.00 0.04 100 994.7
20260504231543 72 329 3.0 0.0 0.00 0.00 0.00 49 995.6
20260504230037 74 227 1.0 0.0 0.00 0.00 0.00 47 993.8
20260504224531 75 231 2.0 0.0 0.00 0.00 0.00 45 994.1
20260504223035 76 281 2.0 0.0 0.00 0.00 0.00 43 994.5
20260504221525 78 311 3.0 0.0 0.00 0.00 0.00 40 994.4
20260504220018 79 290 2.0 0.0 0.00 0.00 0.00 35 994.4
20260504214514 80 230 2.0 0.0 0.00 0.00 0.00 35 994.3
20260504213020 80 259 3.0 0.0 0.00 0.00 0.00 33 994.5
20260504211506 81 231 2.0 0.0 0.00 0.00 0.00 33 994.8
20260504204556 81 281 2.0 0.0 0.00 0.00 0.00 33 995.0
20260504203106 81 335 2.0 0.0 0.00 0.00 0.00 35 995.1
20260504201549 81 294 2.0 0.0 0.00 0.00 0.00 34 995.2
20260504200043 81 346 2.0 0.0 0.00 0.00 0.00 35 995.6
20260504194537 79 348 2.0 0.0 0.00 0.00 0.00 35 995.9
20260504193034 80 235 2.0 0.0 0.00 0.00 0.00 34 996.1
20260504191529 81 319 2.0 0.0 0.00 0.00 0.00 32 996.1
20260504190025 80 327 2.0 0.0 0.00 0.00 0.00 32 996.3
20260504184520 79 275 2.0 0.0 0.00 0.00 0.00 29 996.3
20260504183016 78 338 3.0 0.0 0.00 0.00 0.00 33 996.4
20260504181514 77 300 2.0 0.0 0.00 0.00 0.00 34 996.9
20260504180008 76 313 3.0 0.0 0.00 0.00 0.00 34 997.0
20260504174503 76 321 1.0 0.0 0.00 0.00 0.00 36 997.0
20260504173101 75 223 2.0 0.0 0.00 0.00 0.00 36 997.2
20260504171555 75 235 2.0 0.0 0.00 0.00 0.00 38 997.3